Weather in Yelan

Russia / Sverdlovsk Oblast     57˚37′57″N   63˚41′57″E
temp.,
°C
wind,
m/s
gust,
m/s
humid.,
%
clouds,
%
prec.,
mm/h
press.,
hPa
HPBL,
m
16 january, sat
sat1623:00−11˚s41092100 0.4 1018628
02:00−11˚s3993100 0.3 1016339
05:00−13˚sse2296100 0.3 101653
08:00−13˚ese2396100 0.0 101484
11:00−10˚ese3794100 0.0 1011289
14:00−9˚se3793100 0.0 1008343
17:00−9˚ese3895100 0.1 1005391
20:00−9˚sse2696100 0.1 1002357
17 january, sun
sun1723:00−10˚sw1297100 0.3 100171
02:00−10˚wsw399695 0.1 1001273
05:00−9˚w4129295 0.1 1002642
08:00−15˚wsw359586 0.0 100293
11:00−14˚sw269572 0.0 1001193
14:00−11˚ssw2394100 0.3 1000295
17:00−13˚nw1296100 0.6 100141
20:00−18˚nw489491 0.1 1005317
18 january, mon
mon1823:00−23˚w249762 0.1 100894
02:00−24˚w23980 0.0 101048
05:00−24˚wsw22995 0.0 101122
08:00−23˚wsw239864 0.0 101353
11:00−20˚wsw379432 0.0 1014230
14:00−18˚sw369220 0.0 1014334
17:00−20˚sw379648 0.0 1014185
20:00−21˚wsw389514 0.0 1014182
19 january, tue
tue1923:00−23˚w25957 0.0 101596
02:00−23˚wsw239633 0.0 101672
05:00−25˚nw239731 0.0 101753
08:00−27˚nnw129927 0.0 101919
11:00−25˚n239538 0.0 1021110
14:00−22˚nne249187 0.0 1022219
17:00−25˚nne229589 0.0 102221
20:00−26˚ne2494100 0.0 102295
20 january, wed
wed2023:00−27˚ne2695100 0.0 1023135
02:00−27˚ne3592100 0.0 1023158
05:00−28˚ne3691100 0.0 1022155
08:00−28˚ne3591100 0.0 1023171
11:00−27˚nne2491100 0.0 1024151
14:00−25˚n2391100 0.0 1025193
17:00−28˚nnw119491 0.0 102619
20:00−30˚w019157 0.0 102719